Regional Weather Roundup
Issued by NWS Pendleton, OR

Home | Current Version | Previous Version | Text Only | Print | Product List | Glossary On
Versions: 1 2 3 4 5 6 7 8 9 10 11 12 13 14 15 16 17 18 19 20 21 22 23 24 25 26 27 28 29 30 31 32 33 34 35 36 37 38 39 40 41 42 43 44 45 46 47 48 49 50
000
ASUS46 KPDT 270625
RWRPDT
PENDLETON REGIONAL WEATHER ROUNDUP
NATIONAL WEATHER SERVICE PENDLETON OREGON
1100 PM PDT THU MAY 26 2016

NOTE: FAIR INDICATES FEW OR NO CLOUDS BELOW 12,000 FEET WITH NO
SIGNIFICANT WEATHER AND/OR OBSTRUCTIONS TO VISIBILITY.

# INDICATES UNOFFICIAL STATION AND DATA

WAZ520-270710-
EAST SLOPES OF WASHINGTON CASCADES

CITY            SKY/WX      TMP DP  RH  WIND    PRES   REMARKS
#CLE ELUM HS    N/A         47  37  68  N12     29.98F WCI 42
#CLE ELUM 2NW   N/A         46  37  71  W9      N/A
#GLENWOOD       N/A         48  40  74  S5      30.06R
#MANASTASH CYN  N/A         44  36  73  CALM    30.00S
#NELSON 3SW     N/A         45  35  68  S3      30.18F
#NILE           N/A         48  38  68  CALM    29.27
#RONALD 2NW     N/A         47  N/A N/A NW3     29.90F
#TEANAWAY 4NE   N/A         49  40  71  W3      N/A
#TROUT LAKE 1NE N/A         47  39  74  W8G24   30.08F
#TROUT LAKE 1E  N/A         49  40  71  CALM    30.06S
$$

WAZ521-270710-
SIMCOE HIGHLANDS

CITY            SKY/WX      TMP DP  RH  WIND    PRES   REMARKS
#CENTERVILLE 1SWN/A         48  37  65  W15     30.03R WCI 42
#GOLDENDALE 1NE N/A         49  29  46  SW2     N/A
#GOLDENDALE 4W  N/A         50  43  77  W8      30.10R
#GOODNOE HILLS  N/A         52  40  63  NW26G36 29.94R
#LYLE 6NE       N/A         50  39  66  CALM    30.04F
$$

WAZ026-270710-
KITTITAS VALLEY

CITY            SKY/WX      TMP DP  RH  WIND    PRES   REMARKS
ELLENSBURG AP   MOCLDY      51  37  59  NW17G29 30.01S
6HR MIN TEMP:   51; 6HR MAX TEMP:   62;

#ELLENSBURG CWU N/A         50  39  66  NW12    29.93F
#ELLENSBURG 3NE N/A         49  39  68  N8      30.01S
#ELLENSBURG     N/A         53  42  66  W8      N/A
#ELLENSBURG 1E  N/A         50  N/A N/A NW1     N/A
#ELLENSBURG 13S N/A         54  39  57  E6      N/A
#KITTITAS 4N    N/A         48  38  68  NW14    30.03F WCI 42
#KITTITAS 3S    N/A         50  40  68  NW10    29.97F
#THORP 6N       N/A         47  38  71  W23G37  30.01F WCI 39
$$

WAZ027-270710-
YAKIMA VALLEY

CITY            SKY/WX      TMP DP  RH  WIND    PRES   REMARKS
SUNNYSIDE AP    PTCLDY      56  36  47  W14     29.99S
YAKIMA AIRPORT  PTCLDY      59  35  40  NW16    30.01S
6HR MIN TEMP:   58; 6HR MAX TEMP:   74;

YAKIMA-VAGABOND CLEAR       53  36  52  NW6     29.99S
6HR MIN TEMP:   53; 6HR MAX TEMP:   71;

#DONALD 2NE     N/A         55  18  23  N1      28.85R
#GRANDVIEW      N/A         58  36  44  NW1     29.99R
#MABTON         N/A         57  40  53  W6      29.99R
#NACHES 2SW     N/A         50  39  66  W2      30.01R
#TERRACE HTS    N/A         54  37  52  NW6     29.94S
#TOPPENISH      N/A         56  38  51  CALM    29.91R
#WEST VALLEY    N/A         55  37  51  NW3     29.97F
#W YAKIMA       N/A         53  38  57  CALM    29.99S
#WHITE SWAN 5E  N/A         54  39  57  SW7     29.99R
#WILEY CITY 3W  N/A         49  32  52  CALM    29.97F
$$

WAZ028-270710-
LOWER COLUMBIA BASIN...WASHINGTON

CITY            SKY/WX      TMP DP  RH  WIND    PRES   REMARKS
PASCO           PTCLDY      57  41  55  VRB5    29.98R
6HR MIN TEMP:   57; 6HR MAX TEMP:   75;

PROSSER AWOS    N/A         57  37  47  W9      30.03R
RICHLAND AWOS   PTCLDY      57  41  55  CALM    29.99R
#BENTON CITY    N/A         58  38  47  W13G24  29.87R
#CONNELL 5N     N/A         54  41  61  W6      29.93R
#CONNELL 5NW    N/A         54  42  64  W3      29.90R
#ELTOPIA 6NW    N/A         55  40  57  W3      28.94R
#KAHLOTUS       N/A         54  41  61  W9      29.93R
#KENNEWICK 3S   N/A         54  42  64  N3      29.98R
#PATERSON       N/A         55  43  64  NW7     29.98R
#SAGEMOOR 2W    N/A         57  37  47  W9      29.81R
#TOUCHET 2S     N/A         55  42  61  S16G26  29.96R
#WEST PASCO     N/A         58  41  53  CALM    30.03R
$$

WAZ029-270710-
FOOTHILLS OF THE BLUES...WASHINGTON

CITY            SKY/WX      TMP DP  RH  WIND    PRES   REMARKS
WALLA WALLA AP  CLEAR       53  39  59  S14     30.03R
6HR MIN TEMP:   53; 6HR MAX TEMP:   69;

#CLYDE 6NW      N/A         51  41  68  S9      29.96R
#DAYTON SCHOOL  N/A         52  34  50  SW8     30.02R
#LOWDEN 2SE     N/A         55  42  61  W13     29.98S
#PLEASANT VIEW 1N/A         50  41  71  S13     29.98R
#PRESCOTT       N/A         53  42  66  S5      29.97S
#SUDBURY        N/A         62  N/A N/A CALM    N/A
#WHITMAN COLLEGEN/A         55  41  59  S3      30.06R
#WAITSBURG 8N   N/A         49  18  29  S16     29.79F WCI 43
#WALLA WALLA U  N/A         56  41  57  SW2     30.01R
#WHITMAN MISSIONN/A         56  43  62  S1      30.02R
$$

WAZ030-270710-
BLUE MOUNTAINS...WASHINGTON

CITY            SKY/WX      TMP DP  RH  WIND    PRES   REMARKS
#DIXIE 5SE      N/A         46  38  73  S13     29.96S WCI 40
$$

ORZ009-041-WAZ024-270710-
COLUMBIA RIVER GORGE

CITY            SKY/WX      TMP DP  RH  WIND    PRES   REMARKS
HOOD RIVER AP   MOCLDY      54  41  61  W6      30.14R
THE DALLES AP   CLEAR       57  40  53  W18G29  30.11R
6HR MIN TEMP:   57; 6HR MAX TEMP:   65;

#ARLINGTON AIRPON/A         54  42  64  W16     30.03R
#CELILO DOT     N/A         57  40  53  SW10    N/A
#LYLE           N/A         56  44  64  NW15    30.11S
#MARYHILL 2W    N/A         53  44  71  S2      N/A
#MOSIER 1S      N/A         52  32  46  NW13    30.09S
#MURDOCK        N/A         56  45  66  W17G29  30.05F
#RUFUS DOT      N/A         58  40  51  W30     N/A
#SMITHVILLE     N/A         56  42  59  W14     30.03R

$$

ORZ510-270710-
NORTH CENTRAL OREGON

CITY            SKY/WX      TMP DP  RH  WIND    PRES   REMARKS
#ANTELOPE       N/A         42  36  79  CALM    29.96F
#CHENOWITH 1W   N/A         48  40  74  W25     N/A    WCI 40
#COW CYN RST AREN/A         45  N/A N/A SW8     N/A
#DUFUR 9E       N/A         47  38  71  W29G38  30.13F WCI 38
#GRASS VALLEY   N/A         46  38  73  N1      N/A
#GRASS VALLEY 1SN/A         47  39  74  NW12    30.02S WCI 42
#KENT DOT       N/A         43  34  70  N7      N/A
#MAUPIN SCHOOL  N/A         54  40  59  W2      30.12R
#MORO SCHOOL    N/A         48  43  83  W14     30.08R WCI 42
#SHANIKO 4NW    N/A         43  -59  1  W12     30.09R WCI 37
#TYGH VALLEY 2NEN/A         50  40  68  CALM    30.07R
#WAPANITIA AIRPON/A         49  39  68  W9      30.09R
#WASCO DOT      N/A         51  39  63  W16     N/A
#WASCO AIRPORT  N/A         50  39  66  W28     N/A
#WASCO 5NE      N/A         48  40  74  W13     30.03R WCI 43
$$

ORZ511-270710-
CENTRAL OREGON

CITY            SKY/WX      TMP DP  RH  WIND    PRES   REMARKS
BEND AIRPORT    CLEAR       45  34  65  W5      30.12R
MADRAS AIRPORT  PTCLDY      52  37  56  NW12    30.14S
PRINEVILLE AP   CLEAR       43  36  76  W6      30.12R
REDMOND AIRPORT CLEAR       48  33  56  NW12    30.12R WCI 43
6HR MIN TEMP:   47; 6HR MAX TEMP:   65;

#ASHWOOD SCHOOL N/A         48  37  65  CALM    30.07S
#BEND 1SW       N/A         42  35  76  CALM    N/A
#BEND-AWBREY    N/A         43  35  73  NE2     30.08R
#BEND-KIM LN    N/A         43  36  76  CALM    30.08S
#CULVER         N/A         44  35  70  CALM    30.06R
#CULVER 8W      N/A         44  33  65  CALM    30.09S
#LAKE BILLY CHINN/A         46  N/A N/A S2      30.17S
#MADRAS 4S      N/A         45  12  26  S5      30.17F
#POWELL BUTTE 3EN/A         42  36  79  W3      N/A
#POWELL BUTTE   N/A         43  34  70  NW3     29.98S
#PRINEVILLE 3N  N/A         45  37  73  CALM    30.08S
#WARM SPRINGS   N/A         53  38  57  CALM    30.09R

$$


ORZ509-270710-
EAST SLOPES OF OREGON CASCADES

CITY            SKY/WX      TMP DP  RH  WIND    PRES   REMARKS
SISTERS AWOS    N/A         46  34  63  W12     30.10R WCI 40
#BLUE BOX PASS  N/A         38  N/A N/A NW8     N/A
#CAMP SHERMAN   N/A         42  33  70  CALM    30.18R
#LA PINE DOT    N/A         42  30  62  W2      N/A
#LA PINE 4NW    N/A         40  31  70  W2      30.14R
#LAVA BUTTE DOT N/A         41  31  67  SE3     N/A
#SISTERS AIRPOR N/A         46  40  79  N7      30.17S
#SISTERS ODOT   N/A         47  N/A N/A S8      N/A
#SISTERS 1NW    N/A         46  33  60  N7      N/A
#SISTERS 3N     N/A         45  30  55  W3      30.11R
#SUNRIVER       N/A         42  33  70  S2      30.09R
#SUTTLE LK DOT  N/A         39  35  85  CALM    N/A
#TUMALO 3W      N/A         44  33  65  NW8     29.96R
#WANOGA BUTTE D N/A         38  21  50  NW1     N/A

$$

ORZ044-270710-
LOWER COLUMBIA BASIN...OREGON

CITY            SKY/WX      TMP DP  RH  WIND    PRES   REMARKS
HERMISTON       N/A         N/A N/A N/A MISG    N/A
#BOARDMAN SCHOOLN/A         56  43  62  SW10    30.01R
#BOARDMAN 8SW   N/A         54  43  66  SW15    30.01R
#ECHO 8SW       N/A         54  40  59  W12     30.03R
#I-84 EX 198 DOTN/A         53  38  57  E25     N/A
#UMATILLA SCHOOLN/A         53  46  77  S7      30.05R
#UMATILLA       N/A         55  40  57  SW7     29.93R
$$

ORZ507-270710-
NORTHERN FOOTHILLS OF THE BLUES

CITY            SKY/WX      TMP DP  RH  WIND    PRES   REMARKS
PENDLETON AIRPT LGT RAIN    52  37  56  SW24G31 30.02S
6HR MIN TEMP:   52; 6HR MAX TEMP:   68; 6HR PCP:  TRACE;

#ADAMS 3WNW     N/A         50  39  66  SW12    30.03R
#ATHENA         N/A         49  39  68  SW1     30.04
#CAYUSE         N/A         51  40  66  SW13    30.02R
#HELIX SCHOOL   N/A         49  39  68  SW10    30.01R
#HELIX 3N       N/A         47  39  74  SW14    30.00R WCI 41
#HOLDMAN 5SE    N/A         50  40  68  SW9     30.02R
#HOLDMAN 6E     N/A         49  39  68  N14     29.82R WCI 44
#M-F GROVE ELEM N/A         54  38  55  SW8     30.01R
#M-FREEWATER 5SEN/A         52  39  61  SW2     30.03R
#PENDLETON DNTN N/A         55  33  43  SW6     30.07S
#PDT AQUATIC CTRN/A         54  34  47  SW5     30.05S
#PDT SUNRIDGE   N/A         51  38  61  SW5     30.06R
#PENDLETON 7NW  N/A         52  39  61  W18G30  31.97S
#PILOT ROCK 1S  N/A         51  35  54  S9      30.05S
#PILOT ROCK     N/A         50  36  58  SW7     30.06S
#TUTUILLA       N/A         50  39  66  CALM    30.04R
#UMAPINE 2E     N/A         55  42  61  SW7     29.99R
#WESTON SCHOOL  N/A         48  36  63  N8      29.93R

$$

ORZ508-270710-
SOUTHERN FOOTHILLS OF THE BLUES

CITY            SKY/WX      TMP DP  RH  WIND    PRES   REMARKS
LEXINGTON       PTCLDY      52  37  56  SW16G28 30.10R
#AJAX           N/A         49  33  54  S13     27.83R WCI 44
#CONDON SCHOOL  N/A         45  39  79  W10     30.03S
#CONDON 5W      N/A         42  36  79  SW8     30.06R
#FOSSIL SCHOOL  N/A         47  39  74  CALM    30.04R
#HEPPNER EOC    N/A         48  38  68  W2      29.99S
#HEPPNER 4NE    N/A         45  37  73  SW14G25 30.04S WCI 39
#LEXINGTON 2SE  N/A         52  38  59  W7      30.05R
#OLEX 4N        N/A         52  41  66  SW22G31 30.04R
#RUGGS 5NE      N/A         45  37  73  W13     30.20F WCI 39
#RUGGS 2SW      N/A         45  38  76  W7      30.06S

$$

ORZ502-503-270710-
BLUE MOUNTAINS

CITY            SKY/WX      TMP DP  RH  WIND    PRES   REMARKS
MEACHAM         CLEAR       42  34  73  CALM    30.05S
6HR MIN TEMP:   42; 6HR MAX TEMP:   58;

#BATTLE MTN DOT N/A         40  38  92  NE2     N/A
#CUTSFORTH PARK N/A         42  36  79  CALM    29.84R
#GREENHORN 9SW  N/A         47  36  65  W3      26.23S
#HARDMAN 10S    N/A         61  34  36  N5      30.22S
#HEPPNER 15SE   N/A         40  36  85  W6      25.59S
#LADD CYN SMT   N/A         44  32  62  N7      N/A
#LADD CREEK ODOTN/A         48  35  60  N2      N/A
#LONG CREEK HS  N/A         43  41  93  CALM    N/A
#N POWDER DOT   N/A         48  36  63  N16     N/A    WCI 42
#PIKES PEAK     N/A         43  35  73  SW24G36 27.99S WCI 34
#TOLLGATE       N/A         36  33  89  SW3     29.89S
#TROY SCHOOL    N/A         54  39  57  SW2     29.80R
#UKIAH          N/A         43  36  76  CALM    29.94R
#WESTON 4E      N/A         43  37  79  SW8     29.97S
$$

ORZ505-270710-
JOHN DAY BASIN

CITY            SKY/WX      TMP DP  RH  WIND    PRES   REMARKS
JOHN DAY        N/A         N/A N/A N/A MISG    N/A
#DAYVILLE SCHOOLN/A         53  34  48  W3      30.03R
#MITCHELL       N/A         47  37  68  CALM    30.25R
#MITCHELL 8NW   N/A         44  33  65  NW1     30.26R
#MONUMENT HS    N/A         52  36  54  CALM    30.04R
#MT. VERNON 5SE N/A         48  36  63  SW6     30.01R
#SPRAY SCHOOL   N/A         53  N/A N/A NW3     N/A
#WINLOCK        N/A         44  37  76  CALM    30.05R
$$

ORZ506-270710-
OCHOCO AND JOHN DAY HIGHLANDS

CITY            SKY/WX      TMP DP  RH  WIND    PRES   REMARKS
#BUCK CREEK DOT N/A         48  39  71  W10     N/A
#HORSE RIDGE DO N/A         42  32  67  NW7     N/A
#KEYES SMT DOT  N/A         41  32  70  NW9     N/A
#PAULINA SCHOOL N/A         47  31  53  W8      N/A
#PINE MTN OBS   N/A         32  30  92  N8      N/A
#PRAIRIE CITY   N/A         50  37  61  CALM    30.17R
#SENECA         N/A         46  N/A N/A N1      N/A
#SENECA 9NW     N/A         41  32  70  CALM    29.96R
$$

ORZ049-270710-
GRANDE RONDE VALLEY

CITY            SKY/WX      TMP DP  RH  WIND    PRES   REMARKS
LA GRANDE       CLEAR       48  30  49  W8      30.03R
#COVE           N/A         46  41  83  CALM    30.07R
#COVE SCHOOL    N/A         45  40  82  CALM    30.05R
#COVE 6NW       N/A         47  37  68  CALM    29.92R
#ELGIN 3N       N/A         50  35  56  W1      30.00S
#ELGIN 1E       N/A         50  37  61  NW1     N/A
#ISLAND CITY 4N N/A         51  46  83  CALM    30.22F
#LADD CYN DOT   N/A         49  37  63  NW6     N/A
#UNION 1S       N/A         50  39  66  W2      29.89R
$$

ORZ050-270710-
WALLOWA COUNTY

CITY            SKY/WX      TMP DP  RH  WIND    PRES   REMARKS
JOSEPH AIRPORT  PTCLDY      43  37  79  CALM    N/A
#ENTERPRISE AP  N/A         49  29  46  CALM    29.95F
#ENTERPRISE HS  N/A         45  37  73  CALM    30.02S
#IMNAHA SCHOOL  N/A         57  43  59  N1      29.97S
#IMNAHA 10S     N/A         51  42  71  SW3     29.98S
#JOSEPH 3N      N/A         41  32  70  CALM    30.03F
#JOSEPH 3W      N/A         40  39  96  SW2     29.86F
#LOSTINE 3SE    N/A         44  38  79  CALM    30.01S
#MT HOWARD 8000 N/A         35  32  89  SW2     30.07F
#PROMISE 1S     N/A         46  36  68  E6      30.06F
#WALLOWA SCHOOL N/A         49  37  63  CALM    29.98S



$$



USA.gov is the U.S. government's official web portal to all federal, state and local government web resources and services.